| time (UTC) | temp C | wind direction | speed KPH | gust KPH | rain 1hr cm | rain 24hr cm | rain mn cm | humidity % | barometer mb |
| 20260506212133 | 10 | 188 | 3.2 | 3.2 | 0.00 | 0.00 | 0.00 | 99 | 1008.8 |
| 20260506211133 | 10 | 210 | 6.4 | 6.4 | 0.00 | 0.00 | 0.00 | 99 | 1008.9 |
| 20260506210133 | 10 | 219 | 6.4 | 6.4 | 0.00 | 0.00 | 0.00 | 99 | 1009.0 |
| 20260506205134 | 10 | 208 | 6.4 | 6.4 | 0.00 | 0.00 | 0.00 | 99 | 1009.0 |
| 20260506204134 | 10 | 198 | 4.8 | 4.8 | 0.00 | 0.00 | 0.00 | 100 | 1008.8 |
| 20260506203134 | 10 | 212 | 6.4 | 6.4 | 0.00 | 0.00 | 0.00 | 100 | 1009.0 |
| 20260506202134 | 10 | 202 | 9.7 | 9.7 | 0.00 | 0.00 | 0.00 | 100 | 1009.1 |
| 20260506201133 | 10 | 202 | 4.8 | 4.8 | 0.00 | 0.00 | 0.00 | 100 | 1009.1 |
| 20260506200134 | 10 | 203 | 8.0 | 8.0 | 0.00 | 0.00 | 0.00 | 100 | 1008.9 |
| 20260506195134 | 10 | 210 | 8.0 | 8.0 | 0.00 | 0.00 | 0.00 | 100 | 1009.2 |
| 20260506194134 | 10 | 199 | 11.3 | 11.3 | 0.00 | 0.00 | 0.00 | 100 | 1009.2 |
| 20260506193134 | 10 | 205 | 8.0 | 8.0 | 0.00 | 0.00 | 0.00 | 100 | 1008.9 |
| 20260506192240 | 10 | 203 | 11.3 | 11.3 | 0.00 | 0.00 | 0.00 | 100 | 1009.2 |
| 20260506192133 | 10 | 203 | 11.3 | 11.3 | 0.00 | 0.00 | 0.00 | 100 | 1009.2 |
| 20260506191134 | 10 | 205 | 8.0 | 8.0 | 0.00 | 0.00 | 0.00 | 100 | 1009.5 |
| 20260506190134 | 10 | 206 | 8.0 | 8.0 | 0.00 | 0.00 | 0.00 | 100 | 1009.5 |
| 20260506185135 | 10 | 205 | 6.4 | 6.4 | 0.00 | 0.00 | 0.00 | 100 | 1009.7 |
| 20260506184134 | 10 | 194 | 12.9 | 12.9 | 0.00 | 0.00 | 0.00 | 100 | 1009.7 |
| 20260506183134 | 10 | 208 | 8.0 | 8.0 | 0.00 | 0.00 | 0.00 | 100 | 1009.8 |
| 20260506182134 | 10 | 202 | 6.4 | 6.4 | 0.00 | 0.00 | 0.00 | 100 | 1009.9 |
| 20260506181134 | 10 | 194 | 6.4 | 6.4 | 0.00 | 0.00 | 0.00 | 100 | 1010.1 |
| 20260506180133 | 10 | 202 | 9.7 | 9.7 | 0.00 | 0.00 | 0.00 | 100 | 1010.0 |
| 20260506175134 | 10 | 199 | 8.0 | 8.0 | 0.00 | 0.00 | 0.00 | 100 | 1010.1 |
| 20260506174134 | 10 | 201 | 8.0 | 8.0 | 0.00 | 0.00 | 0.00 | 100 | 1010.3 |
| 20260506173134 | 10 | 187 | 9.7 | 9.7 | 0.00 | 0.00 | 0.00 | 100 | 1010.2 |
| 20260506172133 | 10 | 188 | 8.0 | 8.0 | 0.00 | 0.00 | 0.00 | 100 | 1010.5 |
| 20260506171134 | 10 | 208 | 8.0 | 8.0 | 0.00 | 0.00 | 0.00 | 100 | 1010.8 |
| 20260506170138 | 10 | 203 | 9.7 | 9.7 | 0.00 | 0.00 | 0.00 | 100 | 1010.9 |
| 20260506170134 | 10 | 203 | 9.7 | 9.7 | 0.00 | 0.00 | 0.00 | 100 | 1010.9 |
| 20260506165133 | 10 | 180 | 8.0 | 8.0 | 0.00 | 0.00 | 0.00 | 100 | 1011.2 |
| 20260506164133 | 10 | 184 | 6.4 | 6.4 | 0.00 | 0.00 | 0.00 | 100 | 1011.3 |
| 20260506163134 | 10 | 194 | 8.0 | 8.0 | 0.00 | 0.00 | 0.00 | 100 | 1011.2 |
| 20260506162134 | 10 | 191 | 8.0 | 8.0 | 0.00 | 0.00 | 0.00 | 100 | 1011.4 |
| 20260506161133 | 10 | 191 | 6.4 | 6.4 | 0.00 | 0.00 | 0.00 | 100 | 1011.5 |
| 20260506160134 | 10 | 202 | 8.0 | 8.0 | 0.00 | 0.00 | 0.00 | 100 | 1011.5 |
| 20260506155134 | 10 | 195 | 8.0 | 8.0 | 0.00 | 0.00 | 0.00 | 100 | 1011.5 |
| 20260506154134 | 10 | 222 | 4.8 | 4.8 | 0.00 | 0.00 | 0.00 | 100 | 1011.6 |
| 20260506153134 | 10 | 227 | 4.8 | 4.8 | 0.00 | 0.00 | 0.00 | 100 | 1011.7 |
| 20260506152133 | 10 | 194 | 4.8 | 4.8 | 0.00 | 0.00 | 0.00 | 100 | 1011.9 |
| 20260506151133 | 10 | 208 | 4.8 | 4.8 | 0.00 | 0.00 | 0.00 | 100 | 1012.2 |
| 20260506150134 | 10 | 196 | 4.8 | 4.8 | 0.00 | 0.00 | 0.00 | 100 | 1012.5 |
| 20260506145133 | 10 | 184 | 4.8 | 4.8 | 0.00 | 0.00 | 0.00 | 100 | 1012.4 |
| 20260506144134 | 10 | 202 | 6.4 | 6.4 | 0.00 | 0.00 | 0.00 | 100 | 1012.4 |
| 20260506143133 | 10 | 220 | 8.0 | 8.0 | 0.00 | 0.00 | 0.00 | 100 | 1012.4 |
| 20260506142133 | 10 | 201 | 6.4 | 6.4 | 0.00 | 0.00 | 0.00 | 100 | 1012.4 |
| 20260506141133 | 10 | 185 | 6.4 | 6.4 | 0.00 | 0.00 | 0.00 | 100 | 1012.2 |
| 20260506140134 | 10 | 196 | 4.8 | 4.8 | 0.00 | 0.00 | 0.00 | 100 | 1012.3 |
| 20260506135133 | 10 | 210 | 8.0 | 8.0 | 0.00 | 0.00 | 0.00 | 100 | 1012.3 |
| 20260506134134 | 10 | 201 | 6.4 | 6.4 | 0.00 | 0.00 | 0.00 | 100 | 1012.0 |
| 20260506133133 | 10 | 194 | 8.0 | 8.0 | 0.00 | 0.00 | 0.00 | 100 | 1012.0 |
| 20260506132133 | 10 | 202 | 4.8 | 4.8 | 0.00 | 0.00 | 0.00 | 100 | 1012.0 |
| 20260506131134 | 10 | 202 | 6.4 | 6.4 | 0.00 | 0.00 | 0.00 | 100 | 1012.0 |
| 20260506130133 | 10 | 205 | 6.4 | 6.4 | 0.00 | 0.00 | 0.00 | 100 | 1012.2 |
| 20260506125133 | 10 | 205 | 6.4 | 6.4 | 0.00 | 0.00 | 0.00 | 100 | 1012.4 |
| 20260506124134 | 10 | 191 | 4.8 | 4.8 | 0.00 | 0.00 | 0.00 | 100 | 1012.5 |
| 20260506123133 | 10 | 192 | 8.0 | 8.0 | 0.00 | 0.00 | 0.00 | 100 | 1012.6 |
| 20260506122133 | 10 | 199 | 8.0 | 8.0 | 0.00 | 0.00 | 0.00 | 100 | 1012.6 |
| 20260506121133 | 10 | 172 | 8.0 | 8.0 | 0.00 | 0.00 | 0.00 | 100 | 1012.6 |
| 20260506120134 | 9 | 187 | 8.0 | 8.0 | 0.00 | 0.00 | 0.00 | 100 | 1012.4 |
| 20260506115134 | 9 | 180 | 9.7 | 9.7 | 0.00 | 0.00 | 0.00 | 100 | 1012.4 |
| 20260506114133 | 9 | 184 | 9.7 | 9.7 | 0.00 | 0.00 | 0.00 | 99 | 1012.3 |
| 20260506113134 | 9 | 191 | 9.7 | 9.7 | 0.00 | 0.00 | 0.00 | 99 | 1012.2 |
| 20260506112134 | 9 | 181 | 9.7 | 9.7 | 0.00 | 0.00 | 0.00 | 99 | 1012.4 |
| 20260506111134 | 9 | 194 | 8.0 | 8.0 | 0.00 | 0.00 | 0.00 | 98 | 1012.5 |
| 20260506110133 | 9 | 194 | 9.7 | 9.7 | 0.00 | 0.00 | 0.00 | 98 | 1012.5 |
| 20260506105133 | 9 | 177 | 8.0 | 8.0 | 0.00 | 0.00 | 0.00 | 97 | 1012.4 |
| 20260506104134 | 10 | 194 | 8.0 | 8.0 | 0.00 | 0.00 | 0.00 | 96 | 1012.4 |
| 20260506103134 | 10 | 196 | 8.0 | 8.0 | 0.00 | 0.00 | 0.00 | 95 | 1012.4 |
| 20260506102133 | 10 | 192 | 8.0 | 8.0 | 0.00 | 0.00 | 0.00 | 94 | 1012.4 |
| 20260506101134 | 10 | 191 | 9.7 | 9.7 | 0.00 | 0.00 | 0.00 | 94 | 1012.3 |
| 20260506100134 | 10 | 194 | 6.4 | 6.4 | 0.00 | 0.00 | 0.00 | 93 | 1012.3 |
| 20260506095133 | 10 | 187 | 9.7 | 9.7 | 0.00 | 0.00 | 0.00 | 92 | 1012.4 |
| 20260506094134 | 10 | 196 | 8.0 | 8.0 | 0.00 | 0.00 | 0.00 | 91 | 1012.3 |
| 20260506093134 | 10 | 191 | 8.0 | 8.0 | 0.00 | 0.00 | 0.00 | 91 | 1012.2 |
| 20260506092133 | 10 | 196 | 8.0 | 8.0 | 0.00 | 0.00 | 0.00 | 90 | 1012.3 |
| 20260506091134 | 10 | 187 | 9.7 | 9.7 | 0.00 | 0.00 | 0.00 | 90 | 1012.6 |
| 20260506090134 | 10 | 196 | 9.7 | 9.7 | 0.00 | 0.00 | 0.00 | 90 | 1012.6 |
| 20260506085133 | 10 | 202 | 6.4 | 6.4 | 0.00 | 0.00 | 0.00 | 89 | 1012.5 |
| 20260506084134 | 10 | 198 | 8.0 | 8.0 | 0.00 | 0.00 | 0.00 | 88 | 1012.6 |
| 20260506083135 | 10 | 196 | 11.3 | 11.3 | 0.00 | 0.00 | 0.00 | 88 | 1012.6 |
| 20260506082134 | 10 | 191 | 9.7 | 9.7 | 0.00 | 0.00 | 0.00 | 88 | 1012.7 |
| 20260506081133 | 10 | 194 | 9.7 | 9.7 | 0.00 | 0.00 | 0.00 | 88 | 1012.8 |
| 20260506080135 | 11 | 188 | 8.0 | 8.0 | 0.00 | 0.00 | 0.00 | 87 | 1012.9 |
| 20260506073133 | 10 | 188 | 8.0 | 8.0 | 0.00 | 0.00 | 0.00 | 87 | 1013.2 |
| 20260506072133 | 10 | 191 | 6.4 | 6.4 | 0.00 | 0.00 | 0.00 | 87 | 1013.3 |
| 20260506071133 | 11 | 201 | 6.4 | 6.4 | 0.00 | 0.00 | 0.00 | 87 | 1013.1 |
| 20260506070133 | 11 | 194 | 8.0 | 8.0 | 0.00 | 0.00 | 0.00 | 85 | 1013.4 |
| 20260506062134 | 11 | 201 | 4.8 | 4.8 | 0.00 | 0.00 | 0.00 | 83 | 1013.4 |
| 20260506061134 | 11 | 203 | 4.8 | 4.8 | 0.00 | 0.00 | 0.00 | 82 | 1013.6 |
| 20260506060134 | 11 | 208 | 4.8 | 4.8 | 0.00 | 0.00 | 0.00 | 81 | 1013.7 |
| 20260506051133 | 11 | 300 | 4.8 | 4.8 | 0.00 | 0.00 | 0.00 | 79 | 1014.2 |
| 20260506050133 | 12 | 187 | 1.6 | 1.6 | 0.00 | 0.00 | 0.00 | 78 | 1014.3 |
| 20260506045134 | 12 | 215 | 1.6 | 1.6 | 0.00 | 0.00 | 0.00 | 77 | 1014.3 |
| 20260506044136 | 12 | 201 | 3.2 | 3.2 | 0.00 | 0.00 | 0.00 | 77 | 1014.2 |
| 20260506043134 | 12 | 220 | 3.2 | 3.2 | 0.00 | 0.00 | 0.00 | 76 | 1014.3 |
| 20260506042134 | 13 | 187 | 3.2 | 3.2 | 0.00 | 0.00 | 0.00 | 73 | 1014.4 |
| 20260506041135 | 13 | 203 | 3.2 | 3.2 | 0.00 | 0.00 | 0.00 | 70 | 1014.2 |
| 20260506040133 | 13 | 198 | 6.4 | 6.4 | 0.00 | 0.00 | 0.00 | 68 | 1014.2 |
| 20260506035134 | 13 | 195 | 9.7 | 9.7 | 0.00 | 0.00 | 0.00 | 68 | 1014.0 |
| 20260506034135 | 13 | 201 | 6.4 | 6.4 | 0.00 | 0.00 | 0.00 | 68 | 1014.0 |
| 20260506033133 | 13 | 194 | 8.0 | 8.0 | 0.00 | 0.00 | 0.00 | 69 | 1014.3 |
| 20260506032134 | 13 | 187 | 8.0 | 8.0 | 0.00 | 0.00 | 0.00 | 72 | 1014.3 |
| 20260506031133 | 13 | 191 | 6.4 | 6.4 | 0.00 | 0.00 | 0.00 | 72 | 1014.6 |
| 20260506030133 | 13 | 199 | 4.8 | 4.8 | 0.00 | 0.00 | 0.00 | 75 | 1014.5 |
| 20260506025133 | 13 | 191 | 8.0 | 8.0 | 0.00 | 0.00 | 0.00 | 76 | 1014.6 |
| 20260506024134 | 13 | 194 | 6.4 | 6.4 | 0.00 | 0.00 | 0.00 | 76 | 1014.7 |
| 20260506023134 | 13 | 196 | 4.8 | 4.8 | 0.00 | 0.00 | 0.00 | 75 | 1014.8 |
| 20260506022134 | 13 | 191 | 4.8 | 4.8 | 0.00 | 0.00 | 0.00 | 73 | 1014.9 |
| 20260506021134 | 13 | 184 | 6.4 | 6.4 | 0.00 | 0.00 | 0.00 | 73 | 1014.8 |
| 20260506020133 | 13 | 198 | 6.4 | 6.4 | 0.00 | 0.00 | 0.00 | 72 | 1014.8 |
| 20260506015134 | 13 | 194 | 8.0 | 8.0 | 0.00 | 0.00 | 0.00 | 75 | 1014.6 |
| 20260506014133 | 12 | 192 | 6.4 | 6.4 | 0.00 | 0.00 | 0.00 | 77 | 1014.6 |
| 20260506013134 | 13 | 191 | 6.4 | 6.4 | 0.00 | 0.00 | 0.00 | 82 | 1014.5 |
| 20260506012134 | 13 | 196 | 6.4 | 6.4 | 0.00 | 0.00 | 0.00 | 72 | 1014.4 |
| 20260506011133 | 13 | 199 | 8.0 | 8.0 | 0.00 | 0.00 | 0.00 | 73 | 1014.2 |
| 20260506010135 | 12 | 192 | 6.4 | 6.4 | 0.00 | 0.00 | 0.00 | 77 | 1014.2 |
| 20260506005133 | 13 | 195 | 6.4 | 6.4 | 0.00 | 0.00 | 0.00 | 79 | 1014.2 |
| 20260506004134 | 13 | 196 | 4.8 | 4.8 | 0.00 | 0.00 | 0.00 | 73 | 1014.1 |
| 20260506003134 | 13 | 208 | 4.8 | 4.8 | 0.00 | 0.00 | 0.00 | 73 | 1013.9 |
| 20260506002135 | 12 | 196 | 4.8 | 4.8 | 0.00 | 0.00 | 0.00 | 75 | 1013.7 |
| 20260506001133 | 12 | 203 | 4.8 | 4.8 | 0.00 | 0.00 | 0.00 | 78 | 1013.6 |
| 20260506000134 | 12 | 258 | 1.6 | 1.6 | 0.00 | 0.00 | 0.00 | 80 | 1013.7 |
| 20260505235134 | 12 | 286 | 4.8 | 4.8 | 0.00 | 0.00 | 0.00 | 83 | 1013.7 |
| 20260505234133 | 12 | 310 | 8.0 | 8.0 | 0.00 | 0.00 | 0.00 | 80 | 1013.5 |
| 20260505233134 | 12 | 313 | 16.1 | 16.1 | 0.00 | 0.00 | 0.00 | 84 | 1013.4 |
| 20260505232134 | 11 | 315 | 14.5 | 14.5 | 0.00 | 0.00 | 0.00 | 87 | 1013.2 |
| 20260505231134 | 11 | 322 | 12.9 | 12.9 | 0.00 | 0.00 | 0.00 | 93 | 1013.3 |
| 20260505230134 | 11 | 316 | 14.5 | 14.5 | 0.00 | 0.00 | 0.00 | 94 | 1013.5 |
| 20260505225134 | 11 | 319 | 16.1 | 16.1 | 0.00 | 0.00 | 0.00 | 95 | 1013.4 |
| 20260505224134 | 13 | 323 | 11.3 | 11.3 | 0.00 | 0.00 | 0.00 | 92 | 1013.2 |
| 20260505223133 | 16 | 322 | 4.8 | 4.8 | 0.00 | 0.00 | 0.00 | 56 | 1013.3 |
| 20260505222134 | 16 | 213 | 4.8 | 4.8 | 0.00 | 0.00 | 0.00 | 51 | 1012.7 |
| 20260505221133 | 17 | 208 | 6.4 | 6.4 | 0.00 | 0.00 | 0.00 | 52 | 1012.8 |
| 20260505220135 | 17 | 198 | 4.8 | 4.8 | 0.00 | 0.00 | 0.00 | 47 | 1012.6 |
| 20260505215133 | 17 | 205 | 6.4 | 6.4 | 0.00 | 0.00 | 0.00 | 47 | 1012.3 |
| 20260505214134 | 17 | 192 | 8.0 | 8.0 | 0.00 | 0.00 | 0.00 | 49 | 1012.6 |
| 20260505213134 | 17 | 215 | 6.4 | 6.4 | 0.00 | 0.00 | 0.00 | 48 | 1012.6 |